Weather History for KPAH - September, 2013

Change the Weather History Date:

Sunday, September 15, 2013

  Actual Average Record
Temperature  
Mean Temperature 65 °F 70 °F  
Max Temperature 82 °F 82 °F 102 °F (1939)
Min Temperature 48 °F 58 °F 45 °F (1964)
Degree Days  
Heating Degree Days 0 1  
Month to date heating degree days 2 3  
Since 1 July heating degree days 2 4  
Cooling Degree Days 0 6  
Month to date cooling degree days 157 123  
Year to date cooling degree days 1331 1436  
Growing Degree Days 15 (Base 50)    
Moisture  
Dew Point 52 °F    
Average Humidity 65    
Maximum Humidity 93    
Minimum Humidity 36    
Precipitation  
Precipitation 0.00 in 0.13 in 1.13 in (1996)
Month to date precipitation 0.26 1.78  
Year to date precipitation 41.03 34.26  
Snow  
Snow 0.00 in 0.00 in 0.00 in (2002)
Month to date snowfall 0.0 0.0  
Since 1 July snowfall 0.0 0.0  
Since 1 September snowfall 0.0 0.0  
Snow Depth 0.00 in    
Sea Level Pressure  
Sea Level Pressure 30.07 in    
Wind  
Wind Speed 3 mph (SW)    
Max Wind Speed 12 mph    
Max Gust Speed 17 mph    
Visibility 8 miles    
Events      
T = Trace of Precipitation, MM = Missing Value Source: NWS Daily Summary

Daily Weather History Graph

Daily Weather History Graph

Search for Another Location

Airport or City:

Trip Planner

Search our weather history database for the weather conditions in past years. The results will help you decide how hot, cold, wet, or windy it might be!

Date:

Astronomy

Sep. 15, 2013 Rise Set
Actual Time 6:37 AM CDT 7:02 PM CDT
Civil Twilight 6:11 AM CDT 7:28 PM CDT
Nautical Twilight 5:40 AM CDT 7:58 PM CDT
Astronomical Twilight 5:09 AM CDT 8:30 PM CDT
Moon 4:25 PM CDT (9/15) 2:20 AM CDT (9/15)
Length of Visible Light 13h 16m
Length of Day
12h 24m
Waxing Gibbous, 82% of the Moon is Illuminated
Sep 15
Waxing Gibbous
Sep 19
Full
Sep 26
Last Quarter
Oct 4
New
Oct 11
First Quarter

Hourly Weather History & Observations

Time (CDT) Temp. Heat Index Dew Point Humidity Pressure Visibility Wind Dir Wind Speed Gust Speed Precip Events Conditions
12:53 AM 52.0 °F - 48.9 °F 89% 30.07 in 10.0 mi Calm Calm - N/A   Clear
1:53 AM 50.0 °F - 46.9 °F 89% 30.07 in 10.0 mi Calm Calm - N/A   Clear
2:53 AM 50.0 °F - 48.0 °F 93% 30.07 in 10.0 mi Calm Calm - N/A   Clear
3:53 AM 50.0 °F - 46.9 °F 89% 30.06 in 3.0 mi Calm Calm - N/A   Clear
4:18 AM 51.8 °F - 48.2 °F 88% 30.07 in 1.5 mi Calm Calm - N/A   Clear
4:29 AM 50.0 °F - 48.2 °F 94% 30.07 in 4.0 mi Calm Calm - N/A   Clear
4:53 AM 48.0 °F - 46.9 °F 96% 30.06 in 5.0 mi Calm Calm - N/A   Clear
5:44 AM 48.2 °F - 46.4 °F 93% 30.06 in 1.5 mi Calm Calm - N/A   Clear
5:53 AM 50.0 °F - 48.0 °F 93% 30.06 in 1.5 mi Calm Calm - N/A   Clear
6:00 AM 48.2 °F - 46.4 °F 93% 30.07 in 2.0 mi Calm Calm - N/A   Clear
6:10 AM 48.2 °F - 46.4 °F 93% 30.07 in 9.0 mi Calm Calm - N/A   Clear
6:53 AM 48.9 °F - 46.9 °F 93% 30.07 in 7.0 mi Calm Calm - N/A   Clear
7:53 AM 55.0 °F - 51.1 °F 86% 30.09 in 10.0 mi Calm Calm - N/A   Clear
8:53 AM 64.9 °F - 55.9 °F 73% 30.09 in 10.0 mi Calm Calm - N/A   Clear
9:53 AM 69.1 °F - 55.9 °F 63% 30.10 in 10.0 mi Variable 3.5 mph - N/A   Clear
10:53 AM 73.9 °F - 55.9 °F 53% 30.10 in 10.0 mi West 9.2 mph - N/A   Clear
11:53 AM 75.9 °F - 54.0 °F 46% 30.09 in 10.0 mi SW 6.9 mph - N/A   Clear
12:53 PM 79.0 °F - 54.0 °F 42% 30.08 in 10.0 mi WSW 8.1 mph - N/A   Clear
1:53 PM 80.1 °F - 51.1 °F 36% 30.07 in 10.0 mi SW 6.9 mph - N/A   Clear
2:53 PM 81.0 °F 80.7 °F 55.0 °F 41% 30.06 in 10.0 mi WSW 6.9 mph - N/A   Clear
3:53 PM 81.0 °F - 52.0 °F 36% 30.05 in 10.0 mi SW 8.1 mph - N/A   Clear
4:53 PM 81.0 °F 80.4 °F 53.1 °F 38% 30.05 in 10.0 mi WSW 6.9 mph - N/A   Clear
5:53 PM 78.1 °F - 55.0 °F 45% 30.05 in 10.0 mi SSW 3.5 mph - N/A   Clear
6:53 PM 73.9 °F - 55.9 °F 53% 30.05 in 10.0 mi South 3.5 mph - N/A   Clear
7:53 PM 72.0 °F - 55.9 °F 57% 30.05 in 10.0 mi SSW 3.5 mph - N/A   Clear
8:53 PM 72.0 °F - 55.0 °F 55% 30.05 in 10.0 mi South 5.8 mph - N/A   Clear
9:53 PM 70.0 °F - 55.0 °F 59% 30.05 in 10.0 mi Calm Calm - N/A   Clear
10:53 PM 69.1 °F - 55.0 °F 61% 30.05 in 10.0 mi South 3.5 mph - N/A   Clear
11:53 PM 64.9 °F - 57.0 °F 75% 30.07 in 10.0 mi Calm Calm - N/A   Clear